Regional Weather Roundup
Issued by NWS

Home | Current Version | Previous Version | Graphics & Text | Print | Product List | Glossary On
Versions: 1 2 3 4 5 6 7 8 9 10 11 12 13 14 15 16 17 18 19 20 21 22 23 24 25 26 27 28 29 30 31 32 33 34 35 36 37 38 39 40 41 42 43 44 45 46 47 48 49
000
ASUS45 KBOI 250510
RWRID
WEATHER ROUNDUP FOR IDAHO
NATIONAL WEATHER SERVICE BOISE ID
1100 PM MDT THU JUL 24 2014

NOTE: "FAIR" INDICATES FEW OR NO CLOUDS BELOW 12000 FEET
WITH NO SIGNIFICANT WEATHER AND/OR OBSTRUCTIONS TO VISIBILITY

IDZ012-014-250600-
SOUTHWEST IDAHO


CITY           SKY/WX    TMP DP  RH WIND       PRES   REMARKS
BOISE          CLEAR     65  33  30 NW6       30.06S
CALDWELL       CLEAR     64  36  34 W6        30.07F
MOUNTAIN HOME  CLEAR     60  26  27 W6        30.05F
$$

IDZ016-017-250600-
SOUTHCENTRAL IDAHO


CITY           SKY/WX    TMP DP  RH WIND       PRES   REMARKS
BURLEY         CLEAR     58  34  40 W8        30.09R
JEROME         CLEAR     58  31  35 S9        30.08R
TWIN FALLS     CLEAR     61  22  22 SW12      30.11R
$$

IDZ019>023-250600-
SOUTHEAST IDAHO


CITY           SKY/WX    TMP DP  RH WIND       PRES   REMARKS
IDAHO FALLS    CLEAR     65  35  33 S17       30.08R
POCATELLO      CLEAR     65  33  30 SW14G22   30.10R
REXBURG        CLEAR     62  31  31 S13       30.08S
$$

IDZ006-010-011-018-031-032-250600-
CENTRAL IDAHO MOUNTAINS


CITY           SKY/WX    TMP DP  RH WIND       PRES   REMARKS
MCCALL         CLEAR     53  31  42 NE3       30.16S
HAILEY         CLEAR     57  30  35 W6        30.13S
STANLEY          N/A     49  23  36 SW3       30.21R
SALMON         CLEAR     64  36  34 N8        30.06R
CHALLIS        CLEAR     57  27  31 NE5       30.09R
$$

IDZ002-004-006-007-026-250600-
NORTHERN IDAHO


CITY           SKY/WX    TMP DP  RH WIND       PRES   REMARKS
LEWISTON       CLEAR     67  42  40 CALM      30.09R
LOWELL           N/A     59  47  64 N3        30.14R
COEUR D`ALENE  CLOUDY    63  46  55 SW7       30.07S
MULLAN PASS    CLOUDY    45  38  76 SW6       30.19S
$$



USA.gov is the U.S. government's official web portal to all federal, state and local government web resources and services.